KB6CYS Weather Reports


Display with metric or nautical units.
time (UTC)temp
F
wind
direction
speed
MPH
gust
MPH
rain 1hr
in
rain 24hr
in
rain mn
in
humidity
%
barometer
mb
20260510063504 62 160 1.0 7.0 0.00 0.00 0.00 1012.6
20260510063025 62 173 3.0 7.0 0.00 0.00 0.00 1012.9
20260510062503 61 188 3.0 6.0 0.00 0.00 0.00 1012.9
20260510062002 61 201 3.0 7.0 0.00 0.00 0.00 1012.9
20260510061503 62 187 4.0 7.0 0.00 0.00 0.00 1012.6
20260510061003 62 196 3.0 7.0 0.00 0.00 0.00 1013.2
20260510060503 62 196 2.0 7.0 0.00 0.00 0.00 1012.6
20260510060002 62 173 3.0 6.0 0.00 0.00 0.00 1013.2
20260510055503 62 173 3.0 6.0 0.00 0.00 0.00 1013.2
20260510055002 62 212 2.0 6.0 0.00 0.00 0.00 1013.2
20260510054503 62 184 4.0 8.0 0.00 0.00 0.00 1013.2
20260510054002 62 176 5.0 8.0 0.00 0.00 0.00 1013.2
20260510053501 63 164 3.0 6.0 0.00 0.00 0.00 1012.9
20260510053003 63 176 3.0 6.0 0.00 0.00 0.00 1012.9
20260510052502 63 184 4.0 6.0 0.00 0.00 0.00 1013.2
20260510052024 63 176 2.0 5.0 0.00 0.00 0.00 1013.2
20260510051524 63 217 1.0 3.0 0.00 0.00 0.00 1013.2
20260510051002 62 213 2.0 5.0 0.00 0.00 0.00 1013.2
20260510050503 62 211 2.0 5.0 0.00 0.00 0.00 1013.2
20260510050002 62 211 2.0 5.0 0.00 0.00 0.00 1013.2
20260510045501 62 223 3.0 4.0 0.00 0.00 0.00 1013.6
20260510045023 62 219 3.0 4.0 0.00 0.00 0.00 1013.2
20260510044503 62 244 2.0 4.0 0.00 0.00 0.00 1013.2
20260510044002 63 231 2.0 5.0 0.00 0.00 0.00 1013.2
20260510043504 63 218 3.0 5.0 0.00 0.00 0.00 1012.9
20260510043001 63 166 4.0 5.0 0.00 0.00 0.00 1012.9
20260510042502 63 175 4.0 5.0 0.00 0.00 0.00 1012.6
20260510042002 63 180 3.0 4.0 0.00 0.00 0.00 1012.9
20260510041504 63 160 3.0 4.0 0.00 0.00 0.00 1012.6
20260510041023 63 142 3.0 5.0 0.00 0.00 0.00 1012.9
20260510040502 63 148 3.0 5.0 0.00 0.00 0.00 1012.2
20260510040001 63 125 2.0 4.0 0.00 0.00 0.00 1012.6
20260510035503 64 140 2.0 6.0 0.00 0.00 0.00 1012.2
20260510035002 64 141 3.0 6.0 0.00 0.00 0.00 1012.2
20260510034502 64 146 3.0 6.0 0.00 0.00 0.00 1012.2
20260510034002 64 158 3.0 5.0 0.00 0.00 0.00 1012.2
20260510033504 65 163 3.0 8.0 0.00 0.00 0.00 1012.2
20260510033023 65 153 3.0 8.0 0.00 0.00 0.00 1011.9
20260510032502 65 144 3.0 7.0 0.00 0.00 0.00 1011.5
20260510032002 65 174 4.0 7.0 0.00 0.00 0.00 1012.6
20260510031524 65 163 3.0 8.0 0.00 0.00 0.00 1011.9
20260510031002 65 179 4.0 8.0 0.00 0.00 0.00 1011.5
20260510030503 66 176 4.0 9.0 0.00 0.00 0.00 1011.9
20260510030002 66 168 4.0 9.0 0.00 0.00 0.00 1011.5
20260510025524 67 146 3.0 9.0 0.00 0.00 0.00 1011.5
20260510025002 67 172 5.0 9.0 0.00 0.00 0.00 1011.2
20260510024502 67 183 5.0 9.0 0.00 0.00 0.00 1011.2
20260510024003 67 166 4.0 9.0 0.00 0.00 0.00 1011.5
20260510023523 68 169 4.0 9.0 0.00 0.00 0.00 1011.2
20260510023002 68 161 4.0 9.0 0.00 0.00 0.00 1011.2
20260510022502 69 179 6.0 8.0 0.00 0.00 0.00 1010.9
20260510022003 69 173 5.0 9.0 0.00 0.00 0.00 1011.5
20260510021502 70 172 4.0 11.0 0.00 0.00 0.00 1011.2
20260510021001 71 169 6.0 11.0 0.00 0.00 0.00 1011.2
20260510020502 72 180 5.0 9.0 0.00 0.00 0.00 1011.2
20260510020024 72 172 5.0 10.0 0.00 0.00 0.00 1011.2
20260510015501 72 180 6.0 10.0 0.00 0.00 0.00 1010.9
20260510015023 73 189 5.0 11.0 0.00 0.00 0.00 1011.2
20260510014502 73 169 4.0 11.0 0.00 0.00 0.00 1011.2
20260510014002 74 181 5.0 11.0 0.00 0.00 0.00 1011.5
20260510013502 74 170 6.0 11.0 0.00 0.00 0.00 1011.5
20260510013001 73 212 6.0 11.0 0.00 0.00 0.00 1011.2
20260510012523 74 201 5.0 10.0 0.00 0.00 0.00 1011.5
20260510012003 75 181 5.0 10.0 0.00 0.00 0.00 1011.5
20260510011503 74 193 5.0 9.0 0.00 0.00 0.00 1011.5
20260510011003 74 174 6.0 11.0 0.00 0.00 0.00 1011.2
20260510010502 74 211 6.0 11.0 0.00 0.00 0.00 1011.2
20260510010001 74 206 5.0 11.0 0.00 0.00 0.00 1011.2
20260510005503 74 212 6.0 11.0 0.00 0.00 0.00 1011.5
20260510005002 74 203 5.0 10.0 0.00 0.00 0.00 1011.2
20260510004502 74 214 5.0 10.0 0.00 0.00 0.00 1011.2
20260510004002 74 187 7.0 10.0 0.00 0.00 0.00 1010.9
20260510003502 74 220 6.0 13.0 0.00 0.00 0.00 1010.5
20260510003003 75 193 5.0 13.0 0.00 0.00 0.00 1010.9
20260510002523 76 181 6.0 12.0 0.00 0.00 0.00 1011.5
20260510002002 75 201 6.0 13.0 0.00 0.00 0.00 1010.9
20260510001503 75 179 6.0 13.0 0.00 0.00 0.00 1010.5
20260510001001 76 190 6.0 12.0 0.00 0.00 0.00 1010.9
20260510000502 76 179 5.0 12.0 0.00 0.00 0.00 1010.9
20260510000023 75 213 7.0 12.0 0.00 0.00 0.00 1010.5
20260509235503 76 193 5.0 12.0 0.00 0.00 0.00 1010.5
20260509235023 76 197 5.0 12.0 0.00 0.00 0.00 1010.9
20260509234502 76 185 5.0 11.0 0.00 0.00 0.00 1010.9
20260509234003 76 183 6.0 12.0 0.00 0.00 0.00 1010.9
20260509233502 76 178 6.0 14.0 0.00 0.00 0.00 1010.5
20260509233023 75 174 8.0 14.0 0.00 0.00 0.00 1010.9
20260509232524 75 225 7.0 13.0 0.00 0.00 0.00 1010.5
20260509232002 75 206 4.0 12.0 0.00 0.00 0.00 1010.9
20260509231501 76 190 8.0 12.0 0.00 0.00 0.00 1010.5
20260509231002 76 199 6.0 12.0 0.00 0.00 0.00 1010.9
20260509230503 76 185 7.0 12.0 0.00 0.00 0.00 1010.9
20260509230002 76 186 7.0 12.0 0.00 0.00 0.00 1011.2
20260509225502 75 181 5.0 11.0 0.00 0.00 0.00 1010.9
20260509225001 75 220 7.0 12.0 0.00 0.00 0.00 1010.9
20260509224502 75 209 6.0 12.0 0.00 0.00 0.00 1010.2
20260509224002 76 215 6.0 12.0 0.00 0.00 0.00 1010.5
20260509223502 76 183 5.0 10.0 0.00 0.00 0.00 1010.9
20260509223023 75 196 5.0 13.0 0.00 0.00 0.00 1011.5
20260509222502 75 224 5.0 13.0 0.00 0.00 0.00 1011.2
20260509222024 75 220 6.0 11.0 0.00 0.00 0.00 1011.5
20260509221502 75 216 6.0 12.0 0.00 0.00 0.00 1011.2
20260509221024 74 237 7.0 12.0 0.00 0.00 0.00 1011.2
20260509220501 75 255 7.0 11.0 0.00 0.00 0.00 1011.5
20260509220002 75 226 5.0 13.0 0.00 0.00 0.00 1011.2
20260509215502 74 236 7.0 13.0 0.00 0.00 0.00 1011.2
20260509215003 75 233 6.0 12.0 0.00 0.00 0.00 1011.2
20260509214524 74 217 5.0 12.0 0.00 0.00 0.00 1011.5
20260509214003 74 232 7.0 12.0 0.00 0.00 0.00 1010.5
20260509213503 76 237 8.0 12.0 0.00 0.00 0.00 1010.9
20260509213001 75 206 6.0 12.0 0.00 0.00 0.00 1011.2
20260509212502 75 208 5.0 13.0 0.00 0.00 0.00 1011.2
20260509212003 74 228 8.0 13.0 0.00 0.00 0.00 1011.5
20260509211524 74 200 5.0 16.0 0.00 0.00 0.00 1011.5
20260509211024 73 239 8.0 16.0 0.00 0.00 0.00 1012.2
20260509210502 73 256 6.0 13.0 0.00 0.00 0.00 1012.2
20260509210003 74 234 8.0 15.0 0.00 0.00 0.00 1011.5
20260509205502 74 220 7.0 15.0 0.00 0.00 0.00 1011.9
20260509205003 74 237 6.0 13.0 0.00 0.00 0.00 1011.9
20260509204503 76 181 4.0 10.0 0.00 0.00 0.00 1011.9
20260509204002 75 213 5.0 12.0 0.00 0.00 0.00 1011.5
20260509203523 75 216 6.0 12.0 0.00 0.00 0.00 1011.5
20260509203002 74 205 4.0 9.0 0.00 0.00 0.00 1011.9
20260509202502 74 212 6.0 10.0 0.00 0.00 0.00 1011.9
20260509202002 74 214 6.0 10.0 0.00 0.00 0.00 1012.2
20260509201502 74 220 7.0 10.0 0.00 0.00 0.00 1011.2
20260509201003 74 194 4.0 11.0 0.00 0.00 0.00 1011.9
20260509200502 73 229 3.0 11.0 0.00 0.00 0.00 1011.9
20260509200002 73 229 6.0 12.0 0.00 0.00 0.00 1011.9
20260509195503 73 229 8.0 12.0 0.00 0.00 0.00 1011.9
20260509195002 74 229 6.0 10.0 0.00 0.00 0.00 1011.9
20260509194502 74 186 5.0 10.0 0.00 0.00 0.00 1012.2
20260509194023 74 229 6.0 12.0 0.00 0.00 0.00 1011.9
20260509193502 74 205 5.0 12.0 0.00 0.00 0.00 1011.9
20260509193002 73 206 5.0 15.0 0.00 0.00 0.00 1011.9
20260509192502 72 198 3.0 15.0 0.00 0.00 0.00 1012.2
20260509192003 72 228 5.0 9.0 0.00 0.00 0.00 1011.5
20260509191501 72 201 4.0 9.0 0.00 0.00 0.00 1012.6
20260509191023 72 228 5.0 11.0 0.00 0.00 0.00 1012.2
20260509190502 73 225 7.0 11.0 0.00 0.00 0.00 1012.6
20260509190025 73 199 4.0 10.0 0.00 0.00 0.00 1012.2
20260509185523 73 175 4.0 10.0 0.00 0.00 0.00 1012.2
20260509185002 73 179 3.0 10.0 0.00 0.00 0.00 1012.6
20260509184503 72 175 7.0 10.0 0.00 0.00 0.00 1012.2
20260509184002 71 191 4.0 9.0 0.00 0.00 0.00 1012.2
20260509183502 70 211 4.0 9.0 0.00 0.00 0.00 1012.6
20260509183023 69 219 4.0 11.0 0.00 0.00 0.00 1012.6
20260509182502 70 216 6.0 11.0 0.00 0.00 0.00 1012.6
20260509182003 69 222 5.0 11.0 0.00 0.00 0.00 1012.6
20260509181502 70 212 6.0 11.0 0.00 0.00 0.00 1012.9
20260509181002 69 226 5.0 9.0 0.00 0.00 0.00 1012.6
20260509180502 69 146 3.0 9.0 0.00 0.00 0.00 1012.6
20260509180002 69 223 5.0 9.0 0.00 0.00 0.00 1011.9
20260509175502 68 262 3.0 8.0 0.00 0.00 0.00 1012.2
20260509175002 69 172 5.0 8.0 0.00 0.00 0.00 1012.6
20260509174524 69 148 3.0 6.0 0.00 0.00 0.00 1012.6
20260509174025 68 302 2.0 5.0 0.00 0.00 0.00 1012.6
20260509173502 69 241 2.0 8.0 0.00 0.00 0.00 1012.6
20260509173002 68 199 4.0 8.0 0.00 0.00 0.00 1012.9
20260509172502 69 71 3.0 7.0 0.00 0.00 0.00 1012.2
20260509172002 68 174 5.0 7.0 0.00 0.00 0.00 1012.6
20260509171502 67 174 3.0 7.0 0.00 0.00 0.00 1012.6
20260509171003 66 181 3.0 6.0 0.00 0.00 0.00 1012.6
20260509170503 66 257 4.0 7.0 0.00 0.00 0.00 1012.2
20260509170003 67 236 4.0 7.0 0.00 0.00 0.00 1012.6
20260509165523 66 196 0.0 5.0 0.00 0.00 0.00 1012.2
20260509165002 66 195 3.0 6.0 0.00 0.00 0.00 1012.2
20260509164524 66 225 4.0 6.0 0.00 0.00 0.00 1011.9
20260509164002 66 170 3.0 5.0 0.00 0.00 0.00 1012.2
20260509163502 66 180 1.0 7.0 0.00 0.00 0.00 1012.2
20260509163003 66 179 3.0 7.0 0.00 0.00 0.00 1012.6
20260509162523 66 69 2.0 5.0 0.00 0.00 0.00 1012.6
20260509162023 65 173 2.0 5.0 0.00 0.00 0.00 1011.9
20260509161503 65 191 2.0 5.0 0.00 0.00 0.00 1012.2
20260509161003 64 170 4.0 5.0 0.00 0.00 0.00 1012.2
20260509160502 64 208 1.0 4.0 0.00 0.00 0.00 1012.2
20260509160023 64 153 2.0 4.0 0.00 0.00 0.00 1012.2
20260509155523 64 213 1.0 4.0 0.00 0.00 0.00 1012.6
20260509155001 64 85 2.0 4.0 0.00 0.00 0.00 1012.6
20260509154523 64 167 2.0 4.0 0.00 0.00 0.00 1012.6
20260509154002 63 152 2.0 5.0 0.00 0.00 0.00 1012.2
20260509153502 63 167 3.0 5.0 0.00 0.00 0.00 1012.9
20260509153002 63 183 2.0 4.0 0.00 0.00 0.00 1012.2
20260509152502 63 355 1.0 3.0 0.00 0.00 0.00 1012.2
20260509152024 63 139 0.0 3.0 0.00 0.00 0.00 1012.2
20260509151503 63 190 2.0 3.0 0.00 0.00 0.00 1012.6
20260509151002 63 146 2.0 7.0 0.00 0.00 0.00 1012.6
20260509150502 62 171 4.0 7.0 0.00 0.00 0.00 1012.9
20260509150002 62 107 2.0 5.0 0.00 0.00 0.00 1013.2
20260509145502 62 92 2.0 5.0 0.00 0.00 0.00 1012.6
20260509145003 62 141 1.0 5.0 0.00 0.00 0.00 1012.9
20260509144503 62 136 2.0 5.0 0.00 0.00 0.00 1012.9
20260509144003 62 190 3.0 5.0 0.00 0.00 0.00 1012.2
20260509143502 62 163 2.0 5.0 0.00 0.00 0.00 1012.2
20260509143002 62 128 2.0 5.0 0.00 0.00 0.00 1012.2
20260509142501 62 123 2.0 3.0 0.00 0.00 0.00 1012.2
20260509142024 62 151 1.0 4.0 0.00 0.00 0.00 1012.2
20260509141502 61 155 2.0 4.0 0.00 0.00 0.00 1012.2
20260509141003 62 177 2.0 3.0 0.00 0.00 0.00 1011.9
20260509140501 61 159 1.0 3.0 0.00 0.00 0.00 1012.6
20260509140002 61 76 1.0 2.0 0.00 0.00 0.00 1012.2
20260509135524 61 68 1.0 3.0 0.00 0.00 0.00 1012.6
20260509135002 61 68 1.0 3.0 0.00 0.00 0.00 1012.6
20260509134502 61 279 1.0 2.0 0.00 0.00 0.00 1011.9
20260509134024 61 275 1.0 2.0 0.00 0.00 0.00 1011.9
20260509133502 61 44 1.0 2.0 0.00 0.00 0.00 1012.2
20260509133023 61 45 1.0 1.0 0.00 0.00 0.00 1011.9
20260509132501 61 293 0.0 2.0 0.00 0.00 0.00 1012.2
20260509132002 61 245 1.0 2.0 0.00 0.00 0.00 1011.5
20260509131524 61 206 1.0 2.0 0.00 0.00 0.00 1011.5
20260509131001 61 209 2.0 2.0 0.00 0.00 0.00 1011.5
20260509130525 61 236 1.0 2.0 0.00 0.00 0.00 1011.5
20260509130004 61 247 1.0 3.0 0.00 0.00 0.00 1011.5
20260509125502 60 220 2.0 3.0 0.00 0.00 0.00 1011.5
20260509125023 60 202 2.0 3.0 0.00 0.00 0.00 1011.2
20260509124523 60 237 1.0 3.0 0.00 0.00 0.00 1011.5
20260509124002 60 228 2.0 3.0 0.00 0.00 0.00 1011.5
20260509123502 61 198 1.0 4.0 0.00 0.00 0.00 1011.5
20260509123002 60 212 2.0 4.0 0.00 0.00 0.00 1011.5
20260509122502 61 196 3.0 4.0 0.00 0.00 0.00 1011.5
20260509122002 60 214 2.0 3.0 0.00 0.00 0.00 1011.9
20260509121503 60 212 2.0 4.0 0.00 0.00 0.00 1012.2
20260509121002 60 219 3.0 4.0 0.00 0.00 0.00 1012.2
20260509120502 60 230 2.0 5.0 0.00 0.00 0.00 1012.2
20260509120002 60 271 3.0 5.0 0.00 0.00 0.00 1012.6
20260509115502 60 228 3.0 5.0 0.00 0.00 0.00 1012.6
20260509115002 61 228 3.0 4.0 0.00 0.00 0.00 1012.2
20260509114501 61 220 2.0 3.0 0.00 0.00 0.00 1011.9
20260509114002 60 237 1.0 3.0 0.00 0.00 0.00 1012.2
20260509113502 60 224 1.0 4.0 0.00 0.00 0.00 1011.9
20260509113002 60 225 2.0 4.0 0.00 0.00 0.00 1011.9
20260509112503 61 229 2.0 5.0 0.00 0.00 0.00 1012.6
20260509112002 61 190 3.0 5.0 0.00 0.00 0.00 1011.9
20260509111504 60 216 3.0 5.0 0.00 0.00 0.00 1011.9
20260509111003 60 221 2.0 5.0 0.00 0.00 0.00 1011.9
20260509110504 61 219 2.0 5.0 0.00 0.00 0.00 1012.2
20260509110002 61 209 2.0 4.0 0.00 0.00 0.00 1011.5
20260509105502 60 245 1.0 2.0 0.00 0.00 0.00 1012.2
20260509105001 61 242 2.0 3.0 0.00 0.00 0.00 1012.6
20260509104502 60 198 2.0 3.0 0.00 0.00 0.00 1012.6
20260509104003 61 201 2.0 3.0 0.00 0.00 0.00 1012.2
20260509103502 61 219 2.0 4.0 0.00 0.00 0.00 1012.6
20260509103002 61 183 2.0 5.0 0.00 0.00 0.00 1012.2
20260509102501 60 212 3.0 5.0 0.00 0.00 0.00 1012.6
20260509102003 60 229 1.0 4.0 0.00 0.00 0.00 1012.6
20260509101502 60 219 3.0 5.0 0.00 0.00 0.00 1012.9
20260509101002 61 221 2.0 5.0 0.00 0.00 0.00 1012.9
20260509100502 61 122 2.0 4.0 0.00 0.00 0.00 1012.9
20260509100004 60 165 1.0 3.0 0.00 0.00 0.00 1012.6
20260509095503 60 247 2.0 3.0 0.00 0.00 0.00 1012.6
20260509095002 61 227 1.0 3.0 0.00 0.00 0.00 1012.9
20260509094502 61 135 1.0 4.0 0.00 0.00 0.00 1012.6
20260509094002 61 139 2.0 5.0 0.00 0.00 0.00 1012.6
20260509093503 61 190 2.0 6.0 0.00 0.00 0.00 1012.6
20260509093002 61 169 4.0 6.0 0.00 0.00 0.00 1012.9
20260509092502 60 182 3.0 5.0 0.00 0.00 0.00 1012.9
20260509092003 60 199 3.0 5.0 0.00 0.00 0.00 1012.9
20260509091523 60 114 2.0 3.0 0.00 0.00 0.00 1012.9
20260509091003 60 81 1.0 4.0 0.00 0.00 0.00 1012.9
20260509090501 61 113 2.0 4.0 0.00 0.00 0.00 1013.2
20260509090003 61 183 1.0 6.0 0.00 0.00 0.00 1012.9
20260509085502 60 158 2.0 6.0 0.00 0.00 0.00 1012.9
20260509085001 60 207 2.0 5.0 0.00 0.00 0.00 1012.6
20260509084502 61 214 3.0 5.0 0.00 0.00 0.00 1012.9
20260509084002 60 214 3.0 5.0 0.00 0.00 0.00 1012.9
20260509083502 60 193 3.0 7.0 0.00 0.00 0.00 1012.9
20260509083002 61 198 3.0 7.0 0.00 0.00 0.00 1013.6
20260509082502 61 209 2.0 5.0 0.00 0.00 0.00 1012.9
20260509082001 61 129 3.0 6.0 0.00 0.00 0.00 1013.6
20260509081502 61 106 2.0 6.0 0.00 0.00 0.00 1013.2
20260509081002 61 138 3.0 6.0 0.00 0.00 0.00 1013.2
20260509080502 61 123 2.0 6.0 0.00 0.00 0.00 1013.6
20260509080002 61 189 1.0 5.0 0.00 0.00 0.00 1013.6
20260509075502 61 210 3.0 5.0 0.00 0.00 0.00 1013.6
20260509075024 62 194 3.0 4.0 0.00 0.00 0.00 1013.6
20260509074501 61 168 2.0 5.0 0.00 0.00 0.00 1013.9
20260509074024 61 193 2.0 6.0 0.00 0.00 0.00 1013.9
20260509073503 62 170 4.0 6.0 0.00 0.00 0.00 1013.6
20260509073002 61 204 2.0 6.0 0.00 0.00 0.00 1013.9
20260509072503 61 174 4.0 7.0 0.00 0.00 0.00 1014.3
20260509072004 61 197 4.0 7.0 0.00 0.00 0.00 1013.9
20260509071502 62 173 3.0 7.0 0.00 0.00 0.00 1013.9
20260509071002 62 179 3.0 7.0 0.00 0.00 0.00 1013.9
20260509070502 61 179 2.0 9.0 0.00 0.00 0.00 1013.6
20260509070003 61 179 5.0 9.0 0.00 0.00 0.00 1013.6
20260509065503 62 187 3.0 7.0 0.00 0.00 0.00 1013.6
20260509065002 62 185 5.0 6.0 0.00 0.00 0.00 1013.6
20260509064503 62 187 4.0 7.0 0.00 0.00 0.00 1013.9
20260509064002 62 193 3.0 7.0 0.00 0.00 0.00 1013.9